Current Version              Previous Version:    01  02  03  04  05  06  07  08  09  10  11  12  13  14  15  16  17  18  19  20  21  22  23  24  25  26  27  28  29  30  
   31  32  33  34  35  36  37  38  39  40  41  42  43  44  45  46  47  48  49  50  51  52  53  54  55  56  57  58  59  60  

[Printable]
059
ASUS44 KEWX 292310
RWRTX
SOUTH TEXAS REGIONAL WEATHER ROUNDUP
NATIONAL WEATHER SERVICE AUSTIN/SAN ANTONIO TX
600 PM CDT TUE JUL 29 2014

NOTE: "FAIR" INDICATED FEW OR NO CLOUDS BELOW 12,000 FEET WITH NO
SIGNIFICANT WEATHER AND/OR OBSTRUCTIONS TO VISIBILITY.

* - THESE STATIONS ARE NOT NWS OR FAA STATIONS...AND ARE NOT SUBJECT
    TO NWS AND FAA QUALITY CONTROL.

TXZ171-172-183>190-300000-
TEXAS HILL COUNTRY AND EDWARDS PLATEAU

CITY           SKY/WX    TMP DP  RH WIND       PRES   REMARKS
JUNCTION       MOSUNNY   98  56  24 SE12G17   30.02F HX  96
*LLANO         CLOUDY    84  70  61 E13       30.09R
BURNET         CLOUDY    80  70  71 E13       30.10F
*HORSESHOE BAY CLOUDY    79  73  82 E8G16     30.06S
*KERRVILLE     SUNNY     97  57  26 SE9       30.05F HX  95
*FREDERICKSBRG CLOUDY    96  54  24 SE8       30.05F HX  94
*ROCKSPRINGS   SUNNY     93  54  26 SE10      30.09S HX  91
*BOERNE STAGE  SUNNY     95  54  24 SE7       30.05F HX  93
*CASTROVILLE   SUNNY     99  52  20 SE8       30.01F HX  96
HONDO          SUNNY     96  57  27 SE8       30.02S HX  95
*UVALDE        SUNNY     98  54  22 SE10      30.00S HX  96
DEL RIO        SUNNY    100  53  20 SE15G21   29.95F HX  98
LAUGHLIN AFB   SUNNY    100  54  20 SE16      29.97F HX  98
CARRIZO SPRGS  SUNNY    100  55  22 SE5       29.94F HX  99
$$

TXZ173-191>194-202-209-217>225-228-300000-
CENTRAL AND SOUTH CENTRAL TEXAS

CITY           SKY/WX    TMP DP  RH WIND       PRES   REMARKS
GEORGETOWN     SUNNY     84  72  65 NE9       30.06F
AUSTIN/BERGSTM PTSUNNY   93  71  48 NE15      30.00F HX 100
AUSTIN/MABRY   PTSUNNY   90  71  53 NE9G18    30.03F HX  96
*AUSTIN/EXEC   PTSUNNY   90  72  55 NE16      30.04F HX  96
*LAGO VISTA    PTSUNNY   88  69  53 NE12G18   30.07F HX  92
SAN MARCOS     PTSUNNY   97  63  32 E6        30.00F HX  98
NEW BRAUNFELS  MOSUNNY   99  61  28 SE14G22   29.98F HX  99
RANDOLPH AFB   SUNNY     97  58  27 VRB5      30.00F HX  96
PT SAN ANTONIO SUNNY     97  61  30 SE9       29.99F HX  98
SAN ANTONIO    PTSUNNY   97  61  30 SE7       30.00F HX  97
STINSON FIELD  SUNNY     99  58  25 SE8       29.98F HX  98
*PLEASANTON    SUNNY    100  56  23 E8        29.98S HX  99
*LA GRANGE     PTSUNNY   93  74  54 E10G20    30.00F HX 102
*GIDDINGS      PTSUNNY   88  69  52 NE9       30.07F HX  92
*GONZALES      PTSUNNY   99  64  31 E9        29.97F HX 102
$$

TXZ163>164-176>182-195>201-210>213-226-227-235-300000-
SOUTHEAST TEXAS

CITY           SKY/WX    TMP DP  RH WIND       PRES   REMARKS
COLLEGE STN    PTSUNNY   89  71  55 NE12      30.04F HX  95
*BRYAN         PTSUNNY   89  72  57 E7        30.04F HX  96
*CALDWELL      PTSUNNY   88  72  58 E9        30.07F HX  94
*CROCKETT      PTSUNNY   90  75  62 CALM      30.09F HX 100
*BRENHAM       PTSUNNY   88  71  57 CALM      30.04F HX  94
HUNTSVILLE     PTSUNNY   88  68  51 NE5       30.05F HX  91
CONROE         PTSUNNY   87  72  60 SE3       30.04F HX  93
HOUSTON BUSH   CLOUDY    83  75  77 CALM      30.03F HX  90
HOUSTON HOBBY  CLOUDY    80  74  81 SW6       30.03S
*HOUSTON SW AP CLOUDY    84  70  61 E5        30.04S
PEARLAND       CLOUDY    83  73  72 S3        30.05S
HOUSTON HOOKS  CLOUDY    86  77  74 CALM      30.03F HX  97
ELLINGTON FLD  PTSUNNY   79  79 100 CALM      30.04S
SUGAR LAND     CLOUDY    83  73  72 CALM      30.02S
*HOUSTON EXEC  CLOUDY    84  73  70 NE9       30.04S HX  91
*CLEVELAND MUN CLOUDY    89  74  62 CALM      30.04F HX  98
*WHARTON       SUNNY     86  74  66 E12       30.03S HX  94
$$

TXZ214>216-236>238-300000-
THE UPPER TEXAS COAST

CITY           SKY/WX    TMP DP  RH WIND       PRES   REMARKS
*ORANGE        MOSUNNY   88  69  52 N5        30.03F HX  93
PORT ARTHUR    MOSUNNY   91  70  49 N8        30.01F HX  96
GALVESTON      LGT RAIN  84  75  74 CALM      30.04S HX  92
ANGLETON       LGT RAIN  74  72  93 SW7       30.04F
*BAY CITY      LGT RAIN  78  77  98 SE3G17    30.07R
PALACIOS       NOT AVBL
$$

TXZ229>234-239>247-300000-
TEXAS COASTAL BEND AND RIO GRANDE PLAINS

CITY           SKY/WX    TMP DP  RH WIND       PRES   REMARKS
VICTORIA       SUNNY     96  69  41 SE13      29.99F HX 102
*BEEVILLE      MOSUNNY   99  62  30 SE12G17   29.98S HX 100
ROCKPORT       SUNNY     88  75  65 SE14      30.00F HX  97
*PORT ARANSAS  SUNNY     86  76  74 SE8       30.01F HX  96
*PORT LAVACA   SUNNY     92  65  40 S14       29.99F HX  94
*INGLESIDE     SUNNY     91  71  52 SE16      30.00F HX  97
CORPUS CHRISTI PTSUNNY   94  66  39 E16       29.99F HX  97
CORPUS NAS     PTSUNNY   88  76  67 SE15      30.00F HX  99
*ROBSTOWN      NOT AVBL
ALICE          SUNNY     98  65  33 SE17      29.96S HX 101
KINGSVILLE NAS PTSUNNY   96  72  45 SE17G24   29.97F HX 104
COTULLA        SUNNY    101  49  17 S7        29.96F HX  98
*FAITH RANCH   SUNNY    102  55  21 E12       29.97F HX 101
LAREDO         SUNNY    104  56  20 SE13      29.96F HX 103
$$

TXZ248>255-300000-
DEEP SOUTH TEXAS

CITY           SKY/WX    TMP DP  RH WIND       PRES   REMARKS
BROWNSVILLE    SUNNY     92  72  51 SE15G21   29.99S HX  99
PORT ISABEL    SUNNY     89  74  60 E17       30.00S HX  98
*SOUTH PADRE   SUNNY     88  77  70 SE12      30.01S HX 100
HARLINGEN      SUNNY     96  71  44 SE24G30   29.96S HX 103
*HEBBRONVILLE  SUNNY    101  53  20 SE15      29.97F HX  98
MCALLEN        SUNNY    100  65  31 SE14G25   29.95F HX 103
*WESLACO       SUNNY    100  60  27 SE12      29.95F HX 100
FALFURRIAS     MOSUNNY   92  60  34 SE18      29.94F HX  92
EDINBURG       SUNNY    102  55  21 E10       29.95F HX 100
*ZAPATA        NOT AVBL
$$

TXZ213>215-236>238-242>244-246-247-251-254-255-300000-
CMAN STATIONS

STATION/POSITION TIME  TEMP    WIND        PRES    WAVE
                       AIR SEA DIR/SP/G            HT/PER
                 (UTC) (F)     (DEG/KT/KT) (MB)    (FT/S)
SABINE PASS      2300   87 87  340/  1/  4 1016.5
SEA RIM ST PARK  2200   84     300/  3/  4 1017.4
NORTH JETTY/GLS  2300   83 90   40/  3/  4   N/A
EAGLE POINT      2300   82 88  360/  2/  2 1017.0
MORGANS POINT    2300   83 92   CALM  /  1 1016.9
MISSION/ARANSAS  2200   84     140/ 12     1018.0
PORT O`CONNOR    2300          170/ 12/ 14   N/A
PORT ARANSAS     2200   82 84  110/  9/ 10 1017.8
MALAQUITE BEACH  2300   81 79  100/ 11/ 12 1015.5
BAFFIN BAY       2300   84 89  120/ 17/ 20 1015.7
PORT ISABEL      2300   85 84  120/ 15/ 19 1016.4
$$

GMZ080-GMZ150>470-300000-
OFFSHORE BUOY REPORTS

STATION/POSITION TIME  TEMP    WIND        PRES    WAVE
                       AIR SEA DIR/SP/G            HT/PER
                 (UTC) (F)     (DEG/KT/KT) (MB)    (FT/S)
20 E GALVESTON   2200   83 86  340/  6/  8 1017.2
90 E PT ARANSAS  2300   85 88   CALM  /  2 1017.5    1/ 4
35 NE PT MANSFLD 2300   84 86  130/ 10/ 12 1016.2    1/ 5
200 E PT ISABEL  2300   85 87  360/  4/  6 1017.1    1/ 4
$$